[[{"header":{"parameterUnit":"m.s-1","parameterCategory":1,"la1":30.2991,"la2":30.254,"lo1":-89.0895,"lo2":-89.0444,"dy":0.0017,"dx":0.0017,"nx":28,"ny":28,"refTime":"2024-04-29T21:00:00:Z","depth":0,"parameterNumber":2,"parameterNumberName":"U-component_of_WINDS"},"data":[0,0,0,0,0,0,0,0,0,0,0,0,0,0,0,0,0,0,0,0,0,0,0,0,0,0,0,0,0,0,0,0,0,0,0,0,0,0,0,0,0,0,0,0,0,0,0,0,0,0,0,0,0,0,0,0,0,0,-0.6638,-0.6638,0,-0.6633,-0.6633,-0.6633,-0.6632,-0.6633,-0.6633,-0.6633,-0.6625,-0.6625,-0.6624,0,0,0,0,0,0,0,0,0,0,0,0,0,-0.6648,-0.6648,-0.6638,-0.6638,-0.6638,-0.6633,-0.6633,-0.6633,-0.6632,-0.6633,-0.6633,-0.6633,-0.6625,-0.6625,-0.6624,0,0,0,0,0,0,0,0,0,0,0,0,0,-0.6643,-0.6648,-0.6638,-0.6638,-0.6637,-0.6633,-0.6633,-0.6633,-0.6632,-0.6633,-0.6633,-0.6633,-0.6625,-0.6625,-0.6624,-0.662,0,0,-0.6623,-0.6623,0,0,0,0,0,0,0,0,-0.6643,-0.6643,-0.6638,-0.6638,-0.6637,-0.6634,-0.6633,-0.6629,-0.6632,-0.6634,-0.6633,-0.6633,-0.6628,-0.6627,-0.6626,-0.662,-0.6619,-0.6623,-0.6623,-0.6623,-0.6623,0,0,0,0,0,0,0,-0.6644,-0.6643,-0.6636,-0.6638,-0.6637,-0.6637,-0.6637,-0.6633,-0.663,-0.6634,-0.6634,-0.6634,-0.6628,-0.6626,-0.6626,-0.6619,-0.6623,-0.6623,-0.6623,-0.6622,-0.6611,-0.6611,0,0,0,0,0,0,-0.6644,-0.6643,-0.6636,-0.6636,-0.6641,-0.6637,-0.6636,-0.6635,-0.663,-0.663,-0.6633,-0.6634,-0.6627,-0.6626,-0.6625,-0.6621,-0.6623,-0.6622,-0.6622,-0.6611,-0.6611,-0.6611,0,0,0,0,0,0,-0.6645,-0.6644,-0.6637,-0.664,-0.6639,-0.6637,-0.6635,-0.6635,-0.6633,-0.663,-0.6629,-0.6632,-0.6627,-0.6626,-0.6622,-0.662,-0.6622,-0.6622,-0.6611,-0.6611,-0.6611,-0.6611,0,0,0,0,0,0,-0.6645,-0.6644,-0.6642,-0.664,-0.6639,-0.6633,-0.6635,-0.6634,-0.6633,-0.6633,-0.6629,-0.6628,-0.6627,-0.6622,-0.6621,-0.662,-0.6622,-0.6611,-0.6611,-0.6611,-0.6611,-0.6611,-0.6611,0,0,0,0,0,-0.6645,-0.6642,-0.6642,-0.6641,-0.6637,-0.6633,-0.6633,-0.6632,-0.6633,-0.6631,-0.6629,-0.6628,-0.6621,-0.6622,-0.6621,-0.6619,-0.6611,-0.6611,-0.6611,-0.6611,-0.6611,-0.6611,0,0,0,0,0,0,-0.6643,-0.6641,-0.6642,-0.6637,-0.6636,-0.6633,-0.6631,-0.6631,-0.6629,-0.6629,-0.6627,-0.6626,-0.6622,-0.662,-0.6622,-0.6615,-0.6616,-0.6616,-0.6617,-0.6616,-0.6616,-0.6617,-0.6621,0,0,0,0,0,-0.6642,-0.664,-0.6639,-0.6635,-0.6634,-0.6633,-0.6631,-0.6631,-0.6629,-0.6628,-0.6626,-0.6623,-0.662,-0.6618,-0.6615,-0.6611,-0.6611,-0.6609,-0.6609,-0.6609,-0.6609,-0.6607,-0.6607,-0.661,-0.661,-0.661,0,0,-0.664,-0.6639,-0.6637,-0.6635,-0.6633,-0.6631,-0.6632,-0.6629,-0.6628,-0.6627,-0.6623,-0.6622,-0.6619,-0.6615,-0.6613,-0.6614,-0.6608,-0.6609,-0.6609,-0.6608,-0.6607,-0.6607,-0.6606,-0.661,-0.661,-0.661,0,0,-0.6635,-0.6634,-0.6631,-0.663,-0.6629,-0.6628,-0.6628,-0.6626,-0.6625,-0.6622,-0.6622,-0.662,-0.6615,-0.6613,-0.6611,-0.6608,-0.6607,-0.6607,-0.6606,-0.6604,-0.6604,-0.6604,-0.6603,-0.6603,-0.6607,-0.6607,-0.6607,0,-0.6632,-0.6629,-0.663,-0.6628,-0.6627,-0.6627,-0.6625,-0.6624,-0.6621,-0.662,-0.6621,-0.6615,-0.6613,-0.661,-0.6609,-0.6608,-0.6607,-0.6607,-0.6604,-0.6604,-0.6604,-0.6603,-0.6603,-0.6607,-0.6607,-0.6607,-0.6607,0,-0.6627,-0.6625,-0.6623,-0.6621,-0.662,-0.6618,-0.6618,-0.6616,-0.6617,-0.6616,-0.6613,-0.6611,-0.6609,-0.6608,-0.6607,-0.6604,-0.6604,-0.6605,-0.6605,-0.6603,-0.6603,-0.6602,-0.6607,-0.6607,-0.6607,-0.6607,0,0,-0.6619,-0.6619,-0.6618,-0.6618,-0.6617,-0.6615,-0.6614,-0.6612,-0.6611,-0.661,-0.6608,-0.6605,-0.6606,-0.6604,-0.6603,-0.6602,-0.66,-0.6603,-0.6603,-0.6602,-0.6598,-0.6597,-0.6597,-0.6601,-0.66,-0.66,-0.6598,0,-0.6614,-0.6611,-0.6612,-0.6608,-0.6607,-0.6609,-0.6607,-0.6606,-0.6606,-0.6605,-0.6605,-0.6603,-0.6604,-0.6603,-0.6602,-0.6601,-0.6599,-0.6601,-0.6599,-0.6599,-0.6599,-0.6596,-0.6596,-0.6593,-0.6598,-0.6598,-0.6597,0,-0.6607,-0.6607,-0.6604,-0.6604,-0.6604,-0.6602,-0.6602,-0.66,-0.66,-0.66,-0.6599,-0.66,-0.6598,-0.6599,-0.6597,-0.6598,-0.6597,-0.6597,-0.6597,-0.6596,-0.6598,-0.6595,-0.6593,-0.6592,-0.6597,-0.6597,-0.6597,0,-0.6602,-0.6601,-0.6599,-0.6599,-0.6599,-0.6599,-0.6599,-0.6598,-0.6598,-0.6597,-0.6597,-0.6596,-0.6595,-0.6594,-0.6595,-0.6595,-0.6592,-0.6593,-0.6592,-0.6592,-0.6591,-0.6591,-0.6588,-0.6591,-0.6591,-0.6591,-0.6591,0,-0.6596,-0.6594,-0.6597,-0.6596,-0.6594,-0.6596,-0.6594,-0.6594,-0.6594,-0.6593,-0.6594,-0.6593,-0.6594,-0.6593,-0.6593,-0.6592,-0.6591,-0.6591,-0.6591,-0.6591,-0.6591,-0.659,-0.659,-0.6591,-0.6591,-0.6591,-0.6591,0,-0.659,-0.6591,-0.659,-0.6591,-0.6591,-0.659,-0.6591,-0.659,-0.6591,-0.659,-0.659,-0.6591,-0.659,-0.6591,-0.6589,-0.6589,-0.6588,-0.6588,-0.6588,-0.6588,-0.6587,-0.6587,-0.6582,-0.6582,-0.6586,-0.6586,-0.6586,0,-0.6586,-0.6584,-0.6586,-0.6586,-0.6587,-0.6586,-0.6586,-0.6588,-0.6588,-0.6588,-0.6587,-0.6587,-0.6587,-0.6586,-0.6586,-0.6585,-0.6585,-0.6584,-0.6585,-0.6585,-0.6586,-0.6586,-0.6586,-0.6583,-0.6583,-0.6583,-0.6583,0,-0.6578,-0.658,-0.658,-0.6581,-0.6581,-0.6581,-0.6582,-0.6581,-0.6584,-0.6583,-0.6583,-0.6583,-0.6583,-0.6583,-0.6583,-0.6582,-0.6583,-0.6583,-0.6583,-0.6582,-0.6583,-0.6583,-0.6587,-0.6583,-0.6583,-0.6583,-0.6583,-0.6583,-0.6573,-0.6573,-0.6574,-0.6575,-0.6576,-0.6576,-0.6576,-0.6577,-0.6577,-0.6578,-0.6579,-0.6579,-0.658,-0.658,-0.658,-0.658,-0.658,-0.658,-0.658,-0.6579,-0.658,-0.6583,-0.658,-0.658,-0.658,-0.658,-0.658,0,-0.6566,-0.6568,-0.6568,-0.657,-0.657,-0.6572,-0.6573,-0.6573,-0.6573,-0.6574,-0.6575,-0.6575,-0.6575,-0.6576,-0.6577,-0.6576,-0.6577,-0.6576,-0.6576,-0.6576,-0.6579,-0.6579,-0.6576,-0.6576,-0.6576,-0.6576,-0.6576,-0.6576,-0.6563,-0.6562,-0.6564,-0.6564,-0.6566,-0.6566,-0.6567,-0.6568,-0.6569,-0.6569,-0.657,-0.6571,-0.6572,-0.6573,-0.6573,-0.6574,-0.6574,-0.6573,-0.6573,-0.6576,-0.6576,-0.6576,-0.6577,-0.6573,-0.6573,-0.6571,-0.6571,-0.6571]},{"header":{"parameterUnit":"m.s-1","parameterCategory":1,"la1":30.2991,"la2":30.254,"lo1":-89.0895,"lo2":-89.0444,"dy":0.0017,"dx":0.0017,"nx":28,"ny":28,"refTime":"2024-04-29T21:00:00:Z","depth":0,"parameterNumber":3,"parameterNumberName":"V-component_of_WINDS"},"data":[0,0,0,0,0,0,0,0,0,0,0,0,0,0,0,0,0,0,0,0,0,0,0,0,0,0,0,0,0,0,0,0,0,0,0,0,0,0,0,0,0,0,0,0,0,0,0,0,0,0,0,0,0,0,0,0,0,0,2.9567,2.9568,0,2.9608,2.9608,2.9609,2.9642,2.9642,2.9643,2.9643,2.9681,2.9682,2.9683,0,0,0,0,0,0,0,0,0,0,0,0,0,2.9517,2.9518,2.9567,2.9568,2.9568,2.9608,2.9608,2.9609,2.9642,2.9642,2.9643,2.9643,2.9681,2.9682,2.9683,0,0,0,0,0,0,0,0,0,0,0,0,0,2.9546,2.9518,2.9567,2.959,2.9592,2.9607,2.9608,2.9609,2.9642,2.9642,2.9643,2.9643,2.9681,2.9682,2.9683,2.9678,0,0,2.9686,2.9686,0,0,0,0,0,0,0,0,2.9545,2.9548,2.9586,2.9588,2.9591,2.962,2.9604,2.9632,2.9642,2.9623,2.9643,2.9644,2.966,2.9663,2.9669,2.968,2.9681,2.9686,2.9687,2.9687,2.9687,0,0,0,0,0,0,0,2.9542,2.9546,2.9583,2.9586,2.9589,2.9597,2.9602,2.961,2.9638,2.9625,2.9627,2.9632,2.9662,2.9668,2.967,2.9682,2.9686,2.9687,2.9687,2.9688,2.9692,2.9691,0,0,0,0,0,0,2.9537,2.9545,2.9582,2.9584,2.9569,2.9598,2.9603,2.961,2.9638,2.9643,2.9631,2.9633,2.9666,2.9669,2.9672,2.9669,2.9687,2.9688,2.9689,2.9692,2.9692,2.9691,0,0,0,0,0,0,2.9536,2.954,2.958,2.9565,2.9571,2.9598,2.9606,2.9611,2.9617,2.9643,2.9648,2.9633,2.9667,2.9671,2.9677,2.9671,2.9688,2.9689,2.9693,2.9692,2.9691,2.9662,0,0,0,0,0,0,2.9535,2.954,2.9538,2.9565,2.9572,2.9585,2.9606,2.9611,2.9619,2.9622,2.9646,2.965,2.9668,2.9675,2.9678,2.9672,2.969,2.9693,2.9692,2.9692,2.9664,2.9661,2.9658,0,0,0,0,0,2.9533,2.9528,2.9538,2.9543,2.9571,2.9584,2.9588,2.9609,2.9619,2.9618,2.9634,2.9649,2.9671,2.9675,2.9679,2.9674,2.9694,2.9693,2.9692,2.9665,2.9661,2.9658,0,0,0,0,0,0,2.9498,2.9532,2.9544,2.9547,2.9563,2.959,2.9589,2.9604,2.9616,2.9618,2.9643,2.9648,2.9652,2.9663,2.9668,2.9671,2.9685,2.9684,2.9663,2.966,2.9657,2.9654,2.9691,0,0,0,0,0,2.9491,2.95,2.9529,2.9529,2.9537,2.9561,2.9568,2.9583,2.96,2.9606,2.9624,2.9638,2.9649,2.9655,2.9666,2.9666,2.9672,2.9664,2.9661,2.9658,2.9657,2.9659,2.9656,2.9687,2.9687,2.9687,0,0,2.9477,2.9496,2.95,2.9523,2.9537,2.9545,2.9567,2.9574,2.9581,2.9607,2.9615,2.9628,2.9646,2.965,2.9652,2.9659,2.965,2.9657,2.9655,2.9655,2.9658,2.9655,2.9652,2.9687,2.9687,2.9687,0,0,2.9454,2.947,2.9472,2.9486,2.9508,2.9525,2.9525,2.9551,2.9561,2.9569,2.959,2.9597,2.9614,2.9627,2.9635,2.962,2.9634,2.9622,2.9606,2.9608,2.9605,2.9603,2.9598,2.9596,2.9621,2.9621,2.9621,0,2.9433,2.9447,2.9471,2.9479,2.9488,2.9514,2.9517,2.9529,2.9552,2.9558,2.9567,2.959,2.9604,2.9611,2.9607,2.9613,2.9615,2.9619,2.9604,2.9602,2.96,2.9596,2.9593,2.962,2.962,2.962,2.962,0,2.942,2.943,2.9429,2.9453,2.9462,2.9467,2.9492,2.9498,2.9513,2.9529,2.9537,2.9555,2.9571,2.9574,2.9587,2.9583,2.9587,2.9599,2.9613,2.9596,2.9591,2.959,2.9618,2.9618,2.9619,2.9619,0,0,2.9376,2.9414,2.9414,2.9425,2.9452,2.9459,2.9465,2.9482,2.9487,2.9503,2.9508,2.9523,2.9535,2.9545,2.956,2.9561,2.9549,2.9574,2.9574,2.9568,2.9545,2.9536,2.9534,2.9559,2.9558,2.9558,2.9544,0,2.9358,2.9371,2.9394,2.94,2.9409,2.9435,2.9441,2.9457,2.9472,2.9482,2.9499,2.9509,2.9524,2.953,2.9532,2.955,2.9544,2.9551,2.9564,2.9564,2.9558,2.9531,2.9521,2.9507,2.9542,2.9542,2.9542,0,2.9338,2.9354,2.9361,2.9388,2.9393,2.9397,2.9415,2.9424,2.9444,2.9455,2.9467,2.9484,2.9492,2.9505,2.9516,2.952,2.9527,2.9536,2.9536,2.9537,2.9552,2.9532,2.9503,2.9501,2.954,2.954,2.954,0,2.9305,2.9328,2.9336,2.9345,2.9376,2.9379,2.9392,2.9413,2.9421,2.9437,2.9443,2.9458,2.9466,2.9477,2.9499,2.9506,2.9507,2.9522,2.9516,2.9516,2.9515,2.9515,2.9486,2.9519,2.9519,2.9519,2.9519,0,2.9282,2.9286,2.9322,2.9326,2.9331,2.9358,2.9361,2.9377,2.9395,2.9403,2.9425,2.9432,2.946,2.947,2.9486,2.9493,2.9496,2.9505,2.9509,2.9503,2.9502,2.9507,2.9509,2.9519,2.9519,2.9519,2.9519,0,2.9246,2.9271,2.9281,2.9311,2.9318,2.9321,2.9346,2.9351,2.9369,2.9378,2.9382,2.9409,2.9422,2.9444,2.9463,2.9474,2.9478,2.9485,2.9471,2.9474,2.9467,2.9468,2.9441,2.9439,2.9473,2.9473,2.9473,0,2.923,2.9234,2.9265,2.9272,2.9285,2.9297,2.9307,2.9333,2.9342,2.9365,2.9368,2.9383,2.9396,2.9415,2.9436,2.9451,2.9459,2.9449,2.9461,2.9455,2.9459,2.9458,2.9459,2.9445,2.9445,2.9445,2.9444,0,2.9199,2.9211,2.9225,2.9243,2.9255,2.927,2.9287,2.9291,2.9321,2.933,2.9345,2.9355,2.9375,2.939,2.9408,2.9421,2.9437,2.944,2.944,2.9433,2.9425,2.943,2.9464,2.9441,2.9441,2.9441,2.9441,2.9442,2.9172,2.9177,2.92,2.9215,2.9231,2.9246,2.9253,2.9272,2.9285,2.9304,2.9319,2.9332,2.9352,2.9379,2.9391,2.9401,2.9409,2.9408,2.9408,2.9407,2.9405,2.9424,2.9405,2.9405,2.9405,2.9405,2.9405,0,2.9142,2.9159,2.9173,2.9196,2.9208,2.9224,2.9243,2.9252,2.9264,2.9282,2.9295,2.9312,2.9327,2.9349,2.9366,2.937,2.9378,2.9373,2.9373,2.9376,2.9397,2.9396,2.9367,2.9367,2.9367,2.9367,2.9367,2.9367,2.9128,2.9138,2.9153,2.9171,2.9187,2.9201,2.9211,2.9225,2.924,2.9258,2.9271,2.9287,2.9307,2.9325,2.9339,2.9345,2.935,2.9343,2.9352,2.9371,2.9374,2.9378,2.9377,2.9344,2.9344,2.933,2.933,2.933]}]]